Regional Weather Roundup
Issued by NWS Kansas City/Pleasant Hill, MO

Home | Current Version | Previous Version | Graphics & Text | Print | Product List | Glossary Off
Versions: 1 2 3 4 5 6 7 8 9 10 11 12 13 14 15 16 17 18 19 20 21 22 23 24 25 26 27

000
ASUS43 KEAX 261510
RWREAX

WEATHER ROUNDUP FOR EASTERN KANSAS AND NORTHWEST MISSOURI
NATIONAL WEATHER SERVICE KANSAS CITY/PLEASANT HILL MO
1000 AM CDT TUE JUL 26 2016

KSZ040-057-103>105-MOZ028-029-037-043-261600-
...KANSAS CITY METROPOLITAN AREA...

CITY           SKY/WX    TMP DP  RH WIND       PRES   REMARKS
K.C. INTL      MOSUNNY   80  68  66 E9        30.08S
K.C. DOWNTOWN  SUNNY     81  69  67 E7        30.06S
LEES SUMMIT    SUNNY     79  69  71 E9        30.08S
OLATHE - IXD   MOSUNNY   81  69  67 E8        30.08S
OLATHE - OJC   MOSUNNY   79  69  71 E8        30.08S
LAWRENCE       MOSUNNY   78  70  76 E6        30.07S

$$

MOZ001>008-011>017-020>025-030>033-038>040-044>046-053-054-261600-
...NORTHERN AND CENTRAL MISSOURI...

CITY           SKY/WX    TMP DP  RH WIND       PRES   REMARKS
ST. JOSEPH     SUNNY     80  68  66 E5        30.08S
MOSBY          SUNNY     79  64  61 E7        30.07S
WHITEMAN AFB   NOT AVBL
CLINTON        MOSUNNY   79  72  78 E7        30.06F
SEDALIA        SUNNY     81  71  71 NE6       30.08F
WARSAW         NOT AVBL
CHILLICOTHE      N/A     81  68  64 E6        30.09S
KIRKSVILLE     SUNNY     81  66  60 NE7       30.10S

$$

MOZ041-047>049-056>058-063>065-088>090-097-261600-
...EASTERN AND SOUTHERN MISSOURI...

CITY           SKY/WX    TMP DP  RH WIND       PRES   REMARKS
ST. LOUIS INTL PTSUNNY   83  73  72 NE5       30.05S
SPIRIT OF STL  PTSUNNY   82  76  81 NE6       30.02F
COLUMBIA       SUNNY     80  71  74 NE10      30.06F
JEFFERSON CITY CLOUDY    78  71  79 E5        30.04F
ROLLA          CLOUDY    78  73  84 NE3       30.05S
OSAGE BEACH    CLOUDY    78  73  84 NE5       30.06F
SPRINGFIELD    CLOUDY    81  73  76 NE3       30.05S
BRANSON        PTSUNNY   77  73  88 CALM      30.06S
JOPLIN         MOSUNNY   79  74  84 NE7       30.03S
WEST PLAINS    MOSUNNY   81  72  74 S7        30.07S

$$

IAZ060-094-KSZ022-034>040-054-083-096-NEZ052-066-093-261600-
...KANSAS...SOUTHEAST NEBRASKA AND IOWA...

CITY           SKY/WX    TMP DP  RH WIND       PRES   REMARKS
TOPEKA           N/A     80  71  74 E6        30.07S
MANHATTAN      SUNNY     78  70  76 NE5       30.07S
EMPORIA        MOSUNNY   79  71  76 E12       30.06F
CHANUTE        PTSUNNY   80  72  76 E8        30.04S
WICHITA        PTSUNNY   81  73  76 NE10      30.05S
OMAHA          MOSUNNY   80  65  59 S8        30.08F
LINCOLN        SUNNY     80  67  64 VRB5      30.10R
FALLS CITY     SUNNY     77  69  76 E5        30.08S
LAMONI         SUNNY     78  67  68 E5        30.10S
DES MOINES     MOSUNNY   82  65  56 E3        30.08F

$$





USA.gov is the U.S. government's official web portal to all federal, state and local government web resources and services.